La Vergne, TN

5:54 PM CST on December 02, 2016 (GMT -0600)
Smyrna

Weather History for KMQY - April, 2014

Change the Weather History Date:

Sunday, April 20, 2014

  Actual Average Record
Temperature  
Mean Temperature 61 °F -  
Max Temperature 81 °F 67 °F 86 °F (2002)
Min Temperature 43 °F 50 °F 34 °F (2013)
Degree Days  
Heating Degree Days 4    
Growing Degree Days 11 (Base 50)    
Moisture  
Dew Point 45 °F    
Average Humidity 62    
Maximum Humidity 100    
Minimum Humidity 26    
Precipitation  
Precipitation 0.00 in - - ()
Sea Level Pressure  
Sea Level Pressure 30.20 in    
Wind  
Wind Speed 1 mph (ENE)    
Max Wind Speed 5 mph    
Max Gust Speed -    
Visibility 10 miles    
Events      
Averages and records for this station are not official NWS values.
T = Trace of Precipitation, MM = Missing Value Source: NWS Daily Summary

Daily Weather History Graph

Daily Weather History Graph

Search for Another Location

Airport or City:

Trip Planner

Search our weather history database for the weather conditions in past years. The results will help you decide how hot, cold, wet, or windy it might be!

Date:

Astronomy

Apr. 20, 2014 Rise Set
Actual Time 6:06 AM CDT 7:23 PM CDT
Civil Twilight 5:39 AM CDT 7:50 PM CDT
Nautical Twilight 5:07 AM CDT 8:22 PM CDT
Astronomical Twilight 4:34 AM CDT 8:56 PM CDT
Moon No Moon Rise 10:30 AM CDT (4/20)
Length of Visible Light 14h 10m
Length of Day
13h 17m
Waning Gibbous, 68% of the Moon is Illuminated
Apr 20
Waning Gibbous
Apr 22
Last Quarter
Apr 29
New
May 6
First Quarter
May 14
Full

Hourly Weather History & Observations

Time (CDT) Temp. Dew Point Humidity Pressure Visibility Wind Dir Wind Speed Gust Speed Precip Events Conditions
12:56 AM 48.9 °F 43.0 °F 80% 30.20 in 10.0 mi Calm Calm - N/A   Clear
1:56 AM 47.8 °F 41.9 °F 80% 30.20 in 10.0 mi Calm Calm - N/A   Clear
2:56 AM 45.9 °F 41.9 °F 86% 30.21 in 10.0 mi Calm Calm - N/A   Clear
3:56 AM 45.9 °F 41.9 °F 86% 30.22 in 10.0 mi Calm Calm - N/A   Clear
4:56 AM 45.0 °F 43.9 °F 96% 30.22 in 10.0 mi Calm Calm - N/A   Clear
5:56 AM 43.9 °F 43.9 °F 100% 30.24 in 10.0 mi Calm Calm - N/A   Clear
6:56 AM 45.0 °F 43.0 °F 93% 30.27 in 10.0 mi Calm Calm - N/A   Clear
7:56 AM 50.9 °F 45.9 °F 83% 30.28 in 10.0 mi Calm Calm - N/A   Clear
8:56 AM 59.0 °F 45.9 °F 62% 30.28 in 10.0 mi Calm Calm - N/A   Clear
9:56 AM 66.9 °F 47.8 °F 50% 30.27 in 10.0 mi Variable 3.5 mph - N/A   Clear
10:56 AM 72.0 °F 45.9 °F 39% 30.26 in 10.0 mi Calm Calm - N/A   Clear
12:56 PM 77.0 °F 45.9 °F 33% 30.22 in 10.0 mi Variable 4.6 mph - N/A   Clear
1:56 PM 79.0 °F 43.9 °F 29% 30.20 in 10.0 mi Variable 3.5 mph - N/A   Clear
2:56 PM 79.9 °F 43.0 °F 27% 30.18 in 10.0 mi North 4.6 mph - N/A   Clear
3:56 PM 79.9 °F 41.9 °F 26% 30.17 in 10.0 mi Calm Calm - N/A   Clear
4:56 PM 77.9 °F 45.9 °F 32% 30.15 in 10.0 mi Calm Calm - 0.00 in   Clear
5:56 PM 75.9 °F 46.9 °F 36% 30.14 in 10.0 mi SE 4.6 mph - N/A   Clear
6:56 PM 72.0 °F 45.9 °F 39% 30.14 in 10.0 mi Calm Calm - N/A   Clear
7:56 PM 65.8 °F 48.9 °F 54% 30.14 in 10.0 mi Calm Calm - N/A   Clear
8:56 PM 61.0 °F 48.9 °F 64% 30.15 in 10.0 mi Calm Calm - N/A   Clear
9:56 PM 57.9 °F 47.8 °F 69% 30.16 in 10.0 mi Calm Calm - N/A   Clear
10:56 PM 54.0 °F 48.9 °F 83% 30.16 in 10.0 mi Calm Calm - N/A   Clear
11:56 PM 50.9 °F 47.8 °F 89% 30.16 in 10.0 mi Calm Calm - N/A   Clear